Find Starlink 34846

NORAD ID: 66972 Int'l Des: 2025-288 Owner: SPXS Country: US Constellation: starlink operational
LEOCIRCULAR

現在のビュー

3D地球を読み込み中...

Starlink 34846について

説明を読み込み中...

次回通過

Passes for default location (London). Set your location on the main map for personalized predictions.

高度履歴

Loading altitude history...

軌道要素

1 66972U 25288P 26146.46266265 .00023117 00000-0 84655-3 0 9996
2 66972 42.9974 304.0709 0000380 262.3280 97.7529 15.27594688 27186
Epoch: May 26, 2026 • Age: 9 hours

現在のステータス

高度 488.6 km
速度 7.62 km/s
衛星直下点 -23.94°S, 83.8°E
打ち上げ日 Dec 8, 2025
運用期間 0.4 years
タイプ internet

技術仕様

分類 Payload
質量 575.00 kg
乾燥質量 530.00 kg
総質量 575.00 kg
長さ 0.30 m
直径 4.10 m
スパン 29.00 m
形状 Box + pan
製造者 SPXS
バスタイプ Starlink V2MO
フェーズステータス In Orbit
所有者/国 SPXS/US

Most Searched